Simultaneous Nadir Overpasses (SNOs) Predictions

Prediction of SNOs between GOES-16 and LANDSAT-8 Satellite Orbit:

Table of predicted SNOs for the next 14.0 days since TLE Epoch: 2/8/2020
Index Date Time (GOES-16) GOES-16 Lat,Lon LANDSAT-8 Lat,Lon Distance(km) Time Diff (sec)
1 02/08/2020 03:12:20 0.02, -75.19 0.11, -74.65 61.40 80
2 02/10/2020 03:00:09 0.02, -75.20 0.78, -71.70 398.32 80
3 02/10/2020 15:18:44 -0.03, -75.22 0.35, -76.85 186.44 80
4 02/12/2020 15:09:13 -0.02, -75.24 -0.30, -73.90 151.36 80
5 02/13/2020 03:27:57 0.03, -75.23 -0.81, -79.09 440.04 80
6 02/14/2020 14:57:02 -0.02, -75.26 -0.95, -70.95 489.60 80
7 02/15/2020 03:15:46 0.03, -75.25 -0.17, -76.14 101.72 80
8 02/17/2020 03:06:15 0.03, -75.28 0.47, -73.19 236.89 80
9 02/17/2020 15:24:51 -0.04, -75.30 0.61, -78.35 347.69 80
10 02/19/2020 15:12:40 -0.04, -75.33 -0.02, -75.40 8.52 80
11 02/21/2020 15:03:09 -0.04, -75.37 -0.64, -72.45 331.36 80




NCC Satellite Simultaneous Nadir Overpasses (SNOs) Prediction Service
